Volver al catálogo

STARLINK-3974

ActivoComunicacionesVLEO
NORAD 52634·PAYLOAD·🇺🇸 United States

Lanzado May 14, 2022 desde Cape Canaveral Space Force Station

Loading…

Próximos Pases (próximas 24 horas)

TLE

ActualizadoSource: CelesTrak SupGP

Época: Sep 14, 2026, 21:54 UTC

1 52634C 22052AN  26257.91298611 -.00014290  00000+0 -40887-3 0  2574
2 52634  53.1571 128.8485 0001227  87.0461 224.4112 15.35404061    14

Sigue STARLINK-3974 en tiempo real con AllMySat

Download on the App Store